Flag for Germany Weather past 2 weeks in Zweibrücken, Rhineland-Palatinate, Germany

Now
68 °F

Passing clouds.


Feels Like: 68 °F
Forecast: 56 / 74 °F
Wind: 5 mph from East

Location: Zweibrucken - Rheinland-Pfalz

Current Time: Sep 17, 2014 at 12:02:08 PM

Latest Report: Sep 17, 2014 at 11:20 AM


Visibility: N/A

Pressure: 29.92 "Hg

Humidity: 78%

Dew point: 61 °F

Location of ZweibrückenLocation

Historic Weather in Zweibrücken — Graph

°F

Zweibrücken temperature yesterday

Maximum temperature yesterday: 75 °F (at 4:20 PM)
Minimum temperature yesterday: 52 °F (at 5:20 AM)
Average temperature yesterday: 64 °F

Past Weeks' High & Low Weather Summary

 TemperatureHumidityPressure
High75 °F (Sep 5, 2:50 PM)100% (Sep 3, 3:20 AM)30.18 "Hg (Sep 3, 3:20 AM)
Low46 °F (Sep 12, 5:20 AM)53% (Sep 7, 2:50 PM)29.89 "Hg (Sep 6, 4:50 PM)
Average62 °F82%30.05 "Hg
* Reported Sep 2 10:20 AM — Sep 17 10:50 AM, Zweibrücken, Weather by CustomWeather, © 2014

Note: Actual official high and low records may vary slightly from our data, if they occured in-between our weather recording intervals... More about our weather records

Advertising

Zweibrücken weather history for previous 24 hours

 ConditionsComfort  
Time TempWeatherWind HumidityBarometerVisibility
10:50 AM
Sep 17
66 °FPassing clouds.5 mph83%29.92 "HgN/A
10:20 AM64 °FPassing clouds.5 mph83%29.92 "HgN/A
9:50 AM63 °FClear.5 mph83%29.92 "Hg6 mi
9:20 AM61 °FClear.2 mph88%29.92 "Hg4 mi
8:50 AM59 °FClear.5 mph94%29.92 "Hg4 mi
8:20 AM57 °FFog.2 mph94%29.92 "Hg3 mi
7:50 AM55 °FFog.2 mph94%29.92 "Hg3 mi
7:20 AM54 °FFog.5 mph100%29.92 "Hg3 mi
6:50 AM55 °FFog.5 mph94%29.92 "Hg3 mi
6:20 AM55 °FFog.5 mph94%29.92 "Hg5 mi
5:50 AM55 °FFog.6 mph100%29.92 "HgN/A
5:20 AM55 °FFog.5 mph94%29.92 "HgN/A
4:50 AM55 °FFog.3 mph100%29.92 "HgN/A
2:50 AM57 °FClear.2 mph94%29.92 "Hg10 mi
2:20 AM57 °FClear.5 mph94%29.95 "Hg10 mi
1:50 AM59 °FClear.6 mph94%29.95 "Hg10 mi
1:20 AM59 °FClear.6 mph94%29.95 "Hg10 mi
12:50 AM61 °FPassing clouds.6 mph88%29.95 "HgN/A
12:20 AM59 °FPassing clouds.6 mph94%29.95 "HgN/A
10:50 PM
Sep 16
61 °FClear.7 mph94%29.95 "Hg10 mi
10:20 PM63 °FClear.6 mph88%29.98 "Hg10 mi
9:50 PM63 °FPassing clouds.5 mph88%29.98 "HgN/A
9:20 PM64 °FPassing clouds.5 mph83%29.98 "HgN/A
8:50 PM64 °FSunny.5 mph83%29.95 "Hg10 mi
8:20 PM66 °FPassing clouds.6 mph78%29.95 "HgN/A
7:50 PM66 °FPassing clouds.6 mph78%29.95 "HgN/A
7:20 PM70 °FPassing clouds.6 mph69%29.95 "HgN/A
6:50 PM72 °FPassing clouds.5 mph61%29.95 "HgN/A
6:20 PM73 °FPassing clouds.5 mph57%29.95 "HgN/A
5:50 PM73 °FPassing clouds.2 mph53%29.95 "HgN/A
5:20 PM72 °FPassing clouds.3 mph57%29.95 "HgN/A
4:50 PM73 °FPassing clouds.5 mph57%29.95 "HgN/A
4:20 PM75 °FScattered clouds.3 mph54%29.95 "HgN/A
3:50 PM73 °FPassing clouds.2 mph57%29.95 "HgN/A
3:20 PM73 °FScattered clouds.1 mph61%29.98 "HgN/A
2:50 PM72 °FPassing clouds.2 mph61%29.98 "HgN/A
2:20 PM73 °FPassing clouds.3 mph61%29.98 "HgN/A
1:20 PM70 °FScattered clouds.3 mph69%29.98 "HgN/A
12:50 PM70 °FPassing clouds.1 mph73%30.01 "HgN/A
12:20 PM68 °FPassing clouds.2 mph78%30.01 "HgN/A
Weather by CustomWeather, © 2014

See weather overviewHow to use our weather pages